This is the latest recevied weather packets stored in our database for station/object W7MB. If no packets are shown the sender has not sent any weather packets the latest 10 day(s).
| Time | Temp. | Humidity | Pressure | Rain* | Wind** | Luminosity | Snow |
|---|---|---|---|---|---|---|---|
| 1778096163 | 24.44° C | 45% | 1013.8 hPa | 0 mm | - | - | - |
| 1778095803 | 24.44° C | 41% | 1013.8 hPa | 0 mm | - | - | - |
| 1778095443 | 24.44° C | 41% | 1013.8 hPa | 0 mm | - | - | - |
| 1778095084 | 24.44° C | 45% | 1014 hPa | 0 mm | - | - | - |
| 1778094723 | 24.44° C | 42% | 1013.8 hPa | 0 mm | - | - | - |
| 1778094363 | 23.89° C | 44% | 1014 hPa | 0 mm | - | - | - |
| 1778094004 | 24.44° C | 43% | 1014.1 hPa | 0 mm | - | - | - |
| 1778093643 | 24.44° C | 40% | 1013.9 hPa | 0 mm | - | - | - |
| 1778093283 | 24.44° C | 43% | 1014.1 hPa | 0 mm | - | - | - |
| 1778092924 | 24.44° C | 46% | 1014.1 hPa | 0 mm | - | - | - |
| 1778092563 | 23.89° C | 49% | 1014.1 hPa | 0 mm | - | - | - |
| 1778092204 | 23.33° C | 45% | 1014 hPa | 0 mm | - | - | - |
| 1778091843 | 23.33° C | 47% | 1014 hPa | 0 mm | - | - | - |
| 1778091484 | 22.78° C | 46% | 1014 hPa | 0 mm | - | - | - |
| 1778091123 | 22.22° C | 48% | 1013.8 hPa | 0 mm | - | - | - |
| 1778090763 | 21.67° C | 49% | 1013.9 hPa | 0 mm | - | - | - |
| 1778090404 | 21.11° C | 50% | 1013.9 hPa | 0 mm | - | - | - |
| 1778090043 | 21.11° C | 50% | 1014 hPa | 0 mm | - | - | - |
| 1778089683 | 21.11° C | 49% | 1014 hPa | 0 mm | - | - | - |
| 1778089323 | 21.11° C | 50% | 1014.1 hPa | 0 mm | - | - | - |
| 1778088963 | 20.56° C | 52% | 1014.1 hPa | 0 mm | - | - | - |
| 1778088603 | 20.56° C | 50% | 1014.2 hPa | 0 mm | - | - | - |
| 1778088243 | 20.56° C | 51% | 1014.2 hPa | 0 mm | - | - | - |
| 1778087885 | 20° C | 55% | 1014.3 hPa | 0 mm | - | - | - |
| 1778087523 | 18.89° C | 59% | 1014.3 hPa | 0 mm | - | - | - |
* Rain latest hour (hover to see other rain measurements)
** Current wind speed in m/s (hover to see current wind gust speed)